When you browse on this site, cookies collect data to enhance your experience and personalize the content and advertising you see.
Visit our Privacy Policy to learn more. By continuing to use the site, you agree to this use of cookies and data.
  • In Österreich
  • Länderverzeichnis
  • Für 7 Tage
  • Wassertemperatur
  • Wetterkarte
  • News
  • Widgets
  • user-avatar
    Anmelden

    Stündliche Wetter Ciudad Sahagún

    Heute, 15 Dezember, Sonntag

    Zeit Temperatur Niederschläge Wind Luftdruck Luftfeuchtigkeit
    00:00 +11°C° 0 mm 1 m/S 565 mmHg 54%
    01:00 +11°C° 0 mm 1 m/S 565 mmHg 56%
    02:00 +10°C° 0 mm 1 m/S 565 mmHg 58%
    03:00 +10°C° 0 mm 1 m/S 565 mmHg 58%
    04:00 +10°C° 0 mm 1 m/S 564 mmHg 58%
    05:00 +10°C° 0 mm 1 m/S 564 mmHg 58%
    06:00 +11°C° 0 mm 1 m/S 566 mmHg 53%
    07:00 +13°C° 0 mm 1 m/S 567 mmHg 49%
    08:00 +15°C° 0 mm 1 m/S 568 mmHg 44%
    09:00 +16°C° 0 mm 1 m/S 569 mmHg 37%
    10:00 +19°C° 0 mm 1 m/S 569 mmHg 31%
    11:00 +21°C° 0 mm 1 m/S 570 mmHg 24%
    12:00 +21°C° 0 mm 1 m/S 569 mmHg 23%
    13:00 +22°C° 0 mm 1 m/S 569 mmHg 21%
    14:00 +21°C° 0 mm 2 m/S 569 mmHg 19%
    15:00 +20°C° 0 mm 2 m/S 568 mmHg 26%
    16:00 +18°C° 0 mm 2 m/S 567 mmHg 32%
    17:00 +16°C° 0 mm 2 m/S 566 mmHg 39%
    18:00 +15°C° 0 mm 2 m/S 567 mmHg 47%
    19:00 +14°C° 0 mm 1 m/S 567 mmHg 54%
    20:00 +13°C° 0 mm 1 m/S 567 mmHg 62%
    21:00 +13°C° 0 mm 1 m/S 566 mmHg 64%
    22:00 +12°C° 0 mm 1 m/S 566 mmHg 66%
    23:00 +12°C° 0 mm 1 m/S 566 mmHg 68%

    Morgen, 16 Dezember, Montag

    Zeit Temperatur Niederschläge Wind Luftdruck Luftfeuchtigkeit
    00:00 +11°C° 0 mm 1 m/S 566 mmHg 68%
    01:00 +11°C° 0 mm 1 m/S 565 mmHg 68%
    02:00 +11°C° 0 mm 1 m/S 565 mmHg 68%
    03:00 +10°C° 0 mm 1 m/S 565 mmHg 70%
    04:00 +10°C° 0 mm 1 m/S 565 mmHg 72%
    05:00 +9°C° 0 mm 1 m/S 564 mmHg 74%
    06:00 +11°C° 0 mm 1 m/S 566 mmHg 69%
    07:00 +12°C° 0 mm 1 m/S 567 mmHg 63%
    08:00 +14°C° 0 mm 1 m/S 568 mmHg 57%
    09:00 +15°C° 0 mm 1 m/S 568 mmHg 50%
    10:00 +18°C° 0 mm 1 m/S 569 mmHg 42%
    11:00 +20°C° 0 mm 1 m/S 569 mmHg 35%
    12:00 +20°C° 0 mm 1 m/S 569 mmHg 32%
    13:00 +21°C° 0 mm 1 m/S 569 mmHg 30%
    14:00 +22°C° 0 mm 1 m/S 568 mmHg 28%
    15:00 +19°C° 0 mm 2 m/S 568 mmHg 36%
    16:00 +17°C° 0 mm 2 m/S 567 mmHg 44%
    17:00 +16°C° 0 mm 2 m/S 567 mmHg 53%
    18:00 +15°C° 0 mm 2 m/S 567 mmHg 57%
    19:00 +14°C° 0 mm 1 m/S 567 mmHg 62%
    20:00 +13°C° 0 mm 1 m/S 567 mmHg 66%
    21:00 +13°C° 0 mm 1 m/S 567 mmHg 66%
    22:00 +12°C° 0 mm 1 m/S 567 mmHg 66%
    23:00 +12°C° 0 mm 2 m/S 567 mmHg 66%

    übermorgen, 17 Dezember, Dienstag

    Zeit Temperatur Niederschläge Wind Luftdruck Luftfeuchtigkeit
    00:00 +11°C° 0 mm 1 m/S 567 mmHg 64%
    01:00 +11°C° 0 mm 1 m/S 566 mmHg 63%
    02:00 +10°C° 0 mm 1 m/S 566 mmHg 62%
    03:00 +10°C° 0 mm 1 m/S 566 mmHg 63%
    04:00 +9°C° 0 mm 1 m/S 566 mmHg 63%
    05:00 +9°C° 0 mm 1 m/S 566 mmHg 64%
    06:00 +9°C° 0 mm 2 m/S 567 mmHg 63%
    07:00 +10°C° 0 mm 2 m/S 568 mmHg 63%
    08:00 +12°C° 0 mm 2 m/S 569 mmHg 62%
    09:00 +13°C° 0 mm 2 m/S 569 mmHg 58%
    10:00 +15°C° 0 mm 2 m/S 570 mmHg 54%
    11:00 +17°C° 0 mm 2 m/S 571 mmHg 50%
    12:00 +17°C° 0 mm 2 m/S 570 mmHg 49%
    13:00 +17°C° 0 mm 2 m/S 570 mmHg 48%
    14:00 +18°C° 0 mm 2 m/S 570 mmHg 47%
    15:00 +16°C° 0 mm 3 m/S 569 mmHg 56%
    16:00 +13°C° 0 mm 3 m/S 568 mmHg 65%
    17:00 +11°C° 0 mm 4 m/S 568 mmHg 73%
    18:00 +10°C° 0 mm 3 m/S 568 mmHg 77%
    19:00 +10°C° 0 mm 3 m/S 568 mmHg 80%
    20:00 +9°C° 0 mm 2 m/S 568 mmHg 83%
    21:00 +8°C° 0 mm 2 m/S 568 mmHg 84%
    22:00 +8°C° 0 mm 2 m/S 568 mmHg 84%
    23:00 +9°C° 0 mm 1 m/S 568 mmHg 85%

    18 Dezember, Mittwoch

    Zeit Temperatur Niederschläge Wind Luftdruck Luftfeuchtigkeit
    00:00 +9°C° 0 mm 1 m/S 568 mmHg 85%
    01:00 +9°C° 0 mm 1 m/S 568 mmHg 84%
    02:00 +9°C° 0 mm 1 m/S 568 mmHg 84%
    03:00 +8°C° 0 mm 1 m/S 568 mmHg 83%
    04:00 +8°C° 0 mm 1 m/S 568 mmHg 82%
    05:00 +8°C° 0 mm 1 m/S 568 mmHg 82%
    06:00 +9°C° 0 mm 1 m/S 569 mmHg 80%
    07:00 +9°C° 0 mm 1 m/S 569 mmHg 77%
    08:00 +9°C° 0 mm 1 m/S 570 mmHg 75%
    09:00 +11°C° 0 mm 1 m/S 570 mmHg 68%
    10:00 +13°C° 0 mm 1 m/S 571 mmHg 62%
    11:00 +14°C° 0 mm 1 m/S 571 mmHg 55%
    12:00 +15°C° 0 mm 1 m/S 571 mmHg 52%
    13:00 +16°C° 0 mm 2 m/S 571 mmHg 49%
    14:00 +16°C° 0 mm 2 m/S 570 mmHg 46%
    15:00 +15°C° 0 mm 2 m/S 570 mmHg 52%
    16:00 +13°C° 0 mm 2 m/S 569 mmHg 57%
    17:00 +12°C° 0 mm 2 m/S 569 mmHg 63%
    18:00 +10°C° 0 mm 2 m/S 568 mmHg 67%
    19:00 +8°C° 0 mm 2 m/S 568 mmHg 71%
    20:00 +7°C° 0 mm 2 m/S 568 mmHg 75%
    21:00 +8°C° 0 mm 1 m/S 568 mmHg 77%
    22:00 +8°C° 0 mm 1 m/S 567 mmHg 78%
    23:00 +7°C° 0 mm 1 m/S 567 mmHg 79%

    19 Dezember, Donnerstag

    Zeit Temperatur Niederschläge Wind Luftdruck Luftfeuchtigkeit
    00:00 +7°C° 0 mm 1 m/S 567 mmHg 80%
    01:00 +7°C° 0 mm 1 m/S 566 mmHg 82%
    02:00 +7°C° 0 mm 1 m/S 566 mmHg 83%
    03:00 +7°C° 0 mm 1 m/S 566 mmHg 84%
    04:00 +6°C° 0 mm 1 m/S 566 mmHg 85%
    05:00 +6°C° 0 mm 1 m/S 566 mmHg 86%
    06:00 +8°C° 0 mm 1 m/S 567 mmHg 81%
    07:00 +9°C° 0 mm 1 m/S 568 mmHg 75%
    08:00 +9°C° 0 mm 0 m/S 569 mmHg 69%
    09:00 +12°C° 0 mm 1 m/S 570 mmHg 62%
    10:00 +14°C° 0 mm 1 m/S 570 mmHg 54%
    11:00 +18°C° 0 mm 1 m/S 571 mmHg 47%
    12:00 +18°C° 0 mm 1 m/S 571 mmHg 43%
    13:00 +18°C° 0 mm 2 m/S 570 mmHg 39%
    14:00 +19°C° 0 mm 2 m/S 570 mmHg 35%
    15:00 +17°C° 0 mm 2 m/S 569 mmHg 42%
    16:00 +16°C° 0 mm 2 m/S 569 mmHg 48%
    17:00 +15°C° 0 mm 2 m/S 568 mmHg 55%
    18:00 +14°C° 0 mm 1 m/S 568 mmHg 60%
    19:00 +13°C° 0 mm 1 m/S 568 mmHg 66%
    20:00 +12°C° 0 mm 1 m/S 568 mmHg 71%
    21:00 +11°C° 0 mm 1 m/S 568 mmHg 72%
    22:00 +11°C° 0 mm 1 m/S 568 mmHg 73%
    23:00 +10°C° 0 mm 0 m/S 567 mmHg 73%

    20 Dezember, Freitag

    Zeit Temperatur Niederschläge Wind Luftdruck Luftfeuchtigkeit
    00:00 +10°C° 0 mm 0 m/S 567 mmHg 74%
    01:00 +9°C° 0 mm 0 m/S 567 mmHg 74%
    02:00 +9°C° 0 mm 0 m/S 567 mmHg 75%
    03:00 +9°C° 0 mm 0 m/S 567 mmHg 75%
    04:00 +9°C° 0 mm 0 m/S 567 mmHg 75%
    05:00 +9°C° 0 mm 0 m/S 567 mmHg 74%
    06:00 +10°C° 0 mm 0 m/S 568 mmHg 68%
    07:00 +12°C° 0 mm 1 m/S 569 mmHg 61%
    08:00 +14°C° 0 mm 1 m/S 570 mmHg 55%
    09:00 +15°C° 0 mm 2 m/S 571 mmHg 49%
    10:00 +16°C° 0 mm 3 m/S 571 mmHg 44%
    11:00 +18°C° 0 mm 4 m/S 572 mmHg 39%
    12:00 +17°C° 0 mm 4 m/S 571 mmHg 42%
    13:00 +16°C° 0 mm 5 m/S 571 mmHg 45%
    14:00 +16°C° 0 mm 5 m/S 570 mmHg 48%
    15:00 +14°C° 0 mm 5 m/S 570 mmHg 55%
    16:00 +13°C° 0 mm 5 m/S 569 mmHg 63%
    17:00 +10°C° 0 mm 5 m/S 569 mmHg 71%
    18:00 +10°C° 0 mm 4 m/S 569 mmHg 69%
    19:00 +8°C° 0 mm 4 m/S 569 mmHg 68%
    20:00 +8°C° 0 mm 4 m/S 569 mmHg 67%
    21:00 +7°C° 0 mm 4 m/S 569 mmHg 67%
    22:00 +8°C° 0 mm 3 m/S 569 mmHg 68%
    23:00 +7°C° 0 mm 3 m/S 569 mmHg 68%
    Mehr zeigen